Showing default

NUSAT-42 (M WONENBURGER), 56966

Orbit data source: Space-Track

NUSAT-42 (M WONENBURGER), 56966 is a payload satellite owned by URUGUS S.A. (AR) in SSO that was launched on Mon, 12 Jun 2023 UTC via an FALCON 9 launch vehicle from the Air Force Western Test Range (AFWTR). Payload-class satellites include a variety of spacecraft equipped with specific instruments for various scientific and technological missions. These include communications satellites like Starlink; space stations such as the ISS; scientific satellites like the Hubble; Earth observation satellites from companies like Planet Labs, Umbra, and HawkEye 360; GPS; miniature CubeSats for education and research; and military/defense satellites.

Loading next visibility...
Identifier
56966, 2023-084AL
Orbit
SSO
Country
Flag of ARAR / ARGN
Related business
Manufacturer
URUGUS S.A.
Mission
Operational Commercial Imaging
Bus & Motor
NEWSAT V, Unknown motor
Mass
41.5 kg wet, 38.5 kg dry
Launch date (UTC)
2023-06-12 (3 years ago)
Launch vehicle
FALCON 9
Launch site
Air Force Western Test Range (AFWTR)
Object type
Payload
Rocket body
Debris
Shape & HBR
Box, 1.0 m
Radar Cross Section
0.542 m², Medium (>0.1 m² and < 1m²)

Expand to show TLE details & history
Last TLE update: 7 hours ago

TLE from 7 hours ago
0 NUSAT-42 (M WONENBURGER)
1 56966U 23084AL  26207.25538694  .00024315  00000-0  48360-3 0  9997
2 56966  97.5752 353.0742 0006901 111.9075 248.2909 15.46919943174112
Epoch: 2026-07-26T06:07Z
TLE epoch observation values (Epoch: 2026-07-26T06:07:45.431Z)
Latitude
0.00002°
Longitude
-42.82104°
Altitude
430.604 km
Speed
7.652 km/s
True Right ascension
23h 32m 17s
True Declination
0° 00' 00"
Sunlit
Object was in full shadow at epoch
Visualization orbit readout
Latitude
Unknown
Longitude
Unknown
Altitude
Unknown
Speed
Unknown
Apparent Right ascension
Unknown
Apparent Declination
Unknown
Sunlit
N/A
Visualization observer readout
Local Sidereal Time
01:57:12
Azimuth
Unknown
Elevation
Unknown
Doppler factor
Unknown
Orbital elements
Apogee altitude
427.373 km
Perigee altitude
417.987 km
Semi-major axis
6,800.817 km
Eccentricity
0.00069
Inclination
97.5752°
RAAN
353.0742°
Arg. of periapsis
111.9075°
True anomaly
248.21745°
Mean anomaly
248.2909°
Eccentric anomaly
248.25417°
Mean motion
3.86992 °/min
Orbital period
93.03 mins
BSTAR
0.0004836
Loading maneuver chart data...
Computing Atmospheric mass density...
Loading historical data...
Loading historical data...
Loading historical data...
Loading historical data...
Loading historical data...
Loading historical data...
Loading historical data...

Documentation

Showing up to 5 results
|